sat.trackr.live / text

‹ back to catalog

ONEWEB-0655

NORAD 54677 · 2022-166AM

PAYLOAD ACTIVE UNKNOWN

§ Identity

Operator
Country
UK
Launch date
2022-12-08
Launch site
AFETR
Launch vehicle
Mass (kg)
RCS (m²)

Purposes: comms

External: N2YO · Heavens-Above · Gunter

§ Orbital elements

Epoch: 2026-09-19T14:53:34.039968Z

Period
108.94 min
Inclination
87.9278°
Eccentricity
0.0002020
Mean motion
13.21831947 rev/d
Perigee alt
1,176.2 km
Apogee alt
1,179.3 km
Semi-major
7,555.9 km
B*
-2.6825e-3
RAAN
225.1902°
Arg perigee
75.1014°
Mean anomaly
285.0344°
Rev number
18,391

§ Raw data

ONEWEB-06551 54677U 22166AM  26262.62053287 -.00001095  00000+0 -26825-2 0  99982 54677  87.9278 225.1902 0002020  75.1014 285.0344 13.21831947183912

JSON: /api/v1/satellites/54677 · /tle

For live sub-satellite position, see the globe view (requires WebGL).

§ Visibility from observer

Set your observer location to see the next 7 days of passes ≥ 10°. The values pass through the URL so the page stays shareable.

No JS? Fill the form by hand. The geolocation button needs JavaScript.